Location: Newark
(22.3060°N, 114.2134°E)
Time: 02:54:17
(UTC+00:00)

Explorer 11/Cluster Stage 4 - Pass Details

Date: 28 July 2021
Orbit: 467 x 1256 km, 28.8° (Epoch: 27 September)

Event Time Altitude Azimuth Distance (km) Brightness Sun altitude
Rises 01:56:28 0° 244° (WSW) 4,149 10.0 54.1°
Reaches altitude 10° 01:59:21 10° 243° (WSW) 3,213 9.5 54.8°
Maximum altitude 02:07:37 79° 158° (SSE) 1,257 8.9 56.7°
Drops below altitude 10° 02:15:23 10° 73° (ENE) 3,032 10.2 58.5°
Sets 02:18:03 0° 72° (ENE) 3,905 10.6 59.1°
